Weather History for Almeria, Spain

Change the Weather History Date:

Friday, November 16, 2012

  Actual Average Record
Temperature  
Mean Temperature 66 °F -  
Max Temperature 70 °F 62 °F 70 °F (2012)
Min Temperature 61 °F 50 °F 42 °F (2001)
Growing Degree Days 16 (Base 50)    
Moisture  
Dew Point 60 °F    
Average Humidity 81    
Maximum Humidity 94    
Minimum Humidity 60    
Precipitation  
Precipitation 0.00 in 0.03 in - ()
Sea Level Pressure  
Sea Level Pressure 30.00 in    
Wind  
Wind Speed 7 mph ()    
Max Wind Speed 20 mph    
Max Gust Speed -    
Visibility 6.7 miles    
Events      
Averages and records for this station are not official NWS values.
T = Trace of Precipitation, MM = Missing Value Source: Averaged Metar Reports

Daily Weather History Graph

Daily Weather History Graph

Search for Another Location

Airport:

Trip Planner

Search our weather history database for the weather conditions in past years. The results will help you decide how hot, cold, wet, or windy it might be!

Date:

Astronomy

Nov. 16, 2012 Rise Set
Actual Time 7:49 AM CET 5:59 PM CET
Civil Twilight 7:21 AM CET 6:26 PM CET
Nautical Twilight 6:49 AM CET 6:58 PM CET
Astronomical Twilight 6:19 AM CET 7:29 PM CET
Moon 10:28 AM CET 8:43 PM CET
Length of Visible Light 11h 05m
Length of Day
10h 10m
Waxing Crescent, 9% of the Moon is Illuminated
Nov 16
Waxing Crescent
Nov 20
First Quarter
Nov 28
Full
Dec 6
Last Quarter
Dec 13
New

Hourly Weather History & Observations

Time (CET) Temp. Dew Point Humidity Pressure Visibility Wind Dir Wind Speed Gust Speed Precip Events Conditions
1:00 AM 64 °F 59 °F 80% 30.08 in - NE 6.9 mph - -  
5:00 AM 64.4 °F 62.6 °F 94% 30.04 in 6.2 mi Variable 2.3 mph - N/A   Scattered Clouds
5:30 AM 64.4 °F 62.6 °F 94% 30.04 in 6.2 mi Variable 2.3 mph - N/A   Scattered Clouds
6:00 AM 64.4 °F 60.8 °F 88% 30.04 in 6.2 mi Variable 2.3 mph - N/A   Scattered Clouds
6:30 AM 64.4 °F 62.6 °F 94% 30.04 in 6.2 mi NNE 4.6 mph - N/A   Scattered Clouds
7:00 AM 62 °F 59 °F 87% 30.05 in 12 mi NE 3.5 mph - -   Mostly Cloudy
7:00 AM 64.4 °F 62.6 °F 94% 30.04 in 6.2 mi NE 3.5 mph - N/A   Scattered Clouds
7:30 AM 62.6 °F 60.8 °F 94% 30.04 in 6.2 mi ENE 3.5 mph - N/A   Scattered Clouds
8:00 AM 62.6 °F 60.8 °F 94% 30.04 in 6.2 mi Variable 2.3 mph - N/A   Scattered Clouds
8:30 AM 62.6 °F 60.8 °F 94% 30.04 in 6.2 mi North 3.5 mph - N/A   Scattered Clouds
9:00 AM 64.4 °F 60.8 °F 88% 30.06 in 6.2 mi North 3.5 mph - N/A   Partly Cloudy
9:30 AM 66.2 °F 60.8 °F 83% 30.06 in 6.2 mi Variable 2.3 mph - N/A   Scattered Clouds
10:00 AM 68.0 °F 60.8 °F 78% 30.06 in 6.2 mi Variable 1.2 mph - N/A   Scattered Clouds
10:30 AM 68.0 °F 60.8 °F 78% 30.06 in 6.2 mi ENE 12.7 mph - N/A   Scattered Clouds
11:00 AM 68.0 °F 60.8 °F 78% 30.04 in 6.2 mi ENE 11.5 mph - N/A   Scattered Clouds
11:30 AM 68.0 °F 60.8 °F 78% 30.04 in 6.2 mi ENE 12.7 mph - N/A   Scattered Clouds
12:00 PM 69.8 °F 59.0 °F 68% 30.04 in 6.2 mi ENE 13.8 mph - N/A   Partly Cloudy
12:30 PM 69.8 °F 60.8 °F 73% 30.01 in 6.2 mi ENE 15.0 mph - N/A   Partly Cloudy
1:00 PM 70 °F 59 °F 60% 30.02 in 16 mi ENE 16.1 mph - -   Partly Cloudy
1:00 PM 69.8 °F 60.8 °F 73% 30.01 in 6.2 mi East 16.1 mph - N/A   Scattered Clouds
1:30 PM 69.8 °F 59.0 °F 68% 29.98 in 6.2 mi East 17.3 mph - N/A   Scattered Clouds
2:00 PM 69.8 °F 59.0 °F 68% 29.98 in 6.2 mi ENE 16.1 mph - N/A   Partly Cloudy
2:30 PM 69.8 °F 59.0 °F 68% 29.95 in 6.2 mi ENE 18.4 mph - N/A   Partly Cloudy
3:00 PM 69.8 °F 59.0 °F 68% 29.95 in 6.2 mi ENE 17.3 mph - N/A   Partly Cloudy
3:30 PM 69.8 °F 59.0 °F 68% 29.95 in 6.2 mi ENE 19.6 mph - N/A   Partly Cloudy
4:00 PM 71.6 °F 60.8 °F 69% 29.92 in 6.2 mi ENE 17.3 mph - N/A   Partly Cloudy
4:30 PM 69.8 °F 59.0 °F 68% 29.92 in 6.2 mi ENE 17.3 mph - N/A   Partly Cloudy
5:00 PM 68.0 °F 59.0 °F 73% 29.95 in 6.2 mi ENE 18.4 mph - N/A   Partly Cloudy
5:30 PM 68.0 °F 60.8 °F 78% 29.95 in 6.2 mi East 13.8 mph - N/A   Partly Cloudy
6:00 PM 66.2 °F 60.8 °F 83% 29.95 in 6.2 mi East 12.7 mph - N/A   Partly Cloudy
6:30 PM 64.4 °F 60.8 °F 88% 29.95 in 6.2 mi East 11.5 mph - N/A   Partly Cloudy
7:00 PM 63 °F 58 °F 78% 29.96 in 12 mi East 9.2 mph - -   Scattered Clouds
7:00 PM 64.4 °F 59.0 °F 83% 29.95 in 6.2 mi East 8.1 mph - N/A   Partly Cloudy
7:30 PM 62.6 °F 59.0 °F 88% 29.95 in 6.2 mi ENE 8.1 mph - N/A   Partly Cloudy
8:00 PM 62.6 °F 59.0 °F 88% 29.95 in 6.2 mi ENE 6.9 mph - N/A   Partly Cloudy
8:30 PM 62.6 °F 59.0 °F 88% 29.95 in 6.2 mi Variable 1.2 mph - N/A   Partly Cloudy
9:00 PM 62.6 °F 59.0 °F 88% 29.95 in 6.2 mi NNE 3.5 mph - N/A   Partly Cloudy
9:30 PM 62.6 °F 57.2 °F 82% 29.95 in 6.2 mi NNE 3.5 mph - N/A   Partly Cloudy
10:00 PM 62.6 °F 57.2 °F 82% 29.95 in 6.2 mi NNW 6.9 mph - N/A   Partly Cloudy
10:30 PM 62.6 °F 57.2 °F 82% 29.95 in 6.2 mi NE 4.6 mph - N/A   Partly Cloudy